Location: Distrito Sede de Chapecó
(27.0922°S, 52.6167°W)
Time: 06:24:34
(UTC-03:00)

ISS - Visible Passes

Search period start: 07 December 2021 00:00
Search period end: 17 December 2021 00:00
Orbit: 417 x 422 km, 51.6° (Epoch: 07 December)

Date Brightness Start Highest point End Pass type
(mag) Time Alt. Az. Time Alt. Az. Time Alt. Az.
11 Dec -0.4 04:50:08 10° S 04:52:09 15° SE 04:54:10 10° ESE visible
11 Dec -1.9 19:51:49 10° NNE 19:53:37 14° NE 19:55:26 10° E visible
11 Dec -1.9 21:27:05 10° WNW 21:30:10 32° SW 21:33:16 10° SSE visible
12 Dec -3.3 20:39:21 10° NW 20:42:43 65° SW 20:46:07 10° SE visible
13 Dec -2.6 04:50:58 10° SSW 04:54:18 48° SE 04:57:34 10° ENE visible
13 Dec -3.7 19:52:00 10° NNW 19:55:19 57° NE 19:58:40 10° SE visible
13 Dec 0.0 21:31:27 10° SW 21:32:22 11° SW 21:33:19 10° SSW visible
14 Dec -1.3 04:03:55 10° SSW 04:06:49 25° SE 04:09:41 10° E visible
14 Dec -0.6 20:42:21 10° W 20:44:46 18° SW 20:47:13 10° S visible
15 Dec -0.4 03:17:12 10° S 03:19:15 15° SE 03:21:17 10° ESE visible
15 Dec -3.1 04:53:00 10° WSW 04:56:08 35° NW 04:59:14 10° NNE visible
15 Dec -1.6 19:54:09 10° WNW 19:57:14 32° SW 20:00:21 10° SSE visible
16 Dec -3.9 04:05:23 10° SW 04:08:46 77° NW 04:12:07 10° NE visible
